Regional Weather Roundup
Issued by NWS Sioux Falls, SD

Home | Current Version | Previous Version | Graphics & Text | Print | Product List | Glossary Off
Versions: 1 2 3 4 5 6 7 8 9 10 11 12 13 14 15 16 17 18 19 20 21 22 23 24 25 26 27 28 29 30 31 32 33 34 35 36 37 38 39 40 41 42 43 44 45 46 47 48 49 50

000
ASUS43 KFSD 191010
RWRFSD

WEATHER ROUNDUP FOR SE SOUTH DAKOTA/SW MINNESOTA/NW IOWA
NATIONAL WEATHER SERVICE SIOUX FALLS SD
400 AM CST SUN NOV 19 2017

NOTE: "FAIR" INDICATES FEW OR NO CLOUDS BELOW 12,000 FEET WITH NO
SIGNIFICANT WEATHER AND OR OBSTRUCTIONS TO VISIBILITY.


SDZ038>040-050-052>070-191100-
SOUTHEAST SOUTH DAKOTA

CITY           SKY/WX    TMP DP  RH WIND       PRES   REMARKS
BROOKINGS      CLEAR     20  15  81 SW7       30.08F WCI  11
CHAMBERLAIN    CLOUDY    25  23  93 SW3       30.10F
HURON          CLEAR     23  18  81 S9        30.09F WCI  13
MADISON        FAIR      18  18 100 SW8       30.08F WCI   7
MITCHELL       CLEAR     24  19  81 SW8       30.12F WCI  15
SIOUX FALLS    CLEAR     22  16  78 VRB3      30.12F
WINNER         FAIR      31  21  66 SW9       30.11F WCI  23
YANKTON        CLOUDY    25  22  88 CALM      30.15F
$$

MNZ071-072-080-081-089-090-097-098-191100-
SOUTHWEST MINNESOTA

CITY           SKY/WX    TMP DP  RH WIND       PRES   REMARKS
FAIRMONT       CLEAR     18  12  77 W7        30.12F WCI   9
JACKSON        CLEAR     19  14  79 CALM      30.10F
LUVERNE        CLEAR     18  12  79 W6        30.11F WCI   9
MARSHALL       CLEAR     20  15  81 SW6       30.08F WCI  12
MONTEVIDEO     CLEAR     16  10  79 CALM      30.07F
PIPESTONE      CLEAR     16  12  86 SW5       30.07F WCI   9
REDWOOD FALLS  CLEAR     18  10  71 W7        30.09F WCI   9
WINDOM           N/A     18   5  57 W5        30.09F WCI  11
WORTHINGTON    CLEAR     18  14  84 SW8       30.10F WCI   8
$$

IAZ001>003-012>014-020>022-031-032-NEZ013-014-SDZ071-191100-
NORTHWEST IOWA

CITY           SKY/WX    TMP DP  RH WIND       PRES   REMARKS
CHEROKEE       CLEAR     22  18  87 W5        30.16F WCI  15
DENISON        CLEAR     23  18  80 CALM      30.20F
ESTHERVILLE    CLEAR     16  13  88 W6        30.11F WCI   7
LE MARS        CLEAR     23  19  86 CALM      30.16F
ORANGE CITY    CLEAR     19  18  93 SW3       30.13F
SHELDON        CLEAR     18  16  93 SW6       30.11F WCI   9
SIOUX CITY     CLEAR     23  19  85 CALM      30.19F
SPENCER        CLEAR     17  12  80 W3        30.13F
STORM LAKE     CLEAR     19  16  86 W10       30.14F WCI   8
$$

ABBREVIATIONS USED IN REMARKS
   TC - TEMPERATURE IN CELSIUS
  WCI - WIND CHILL INDEX
   HX - HEAT INDEX
  VSB - VISIBILITY





USA.gov is the U.S. government's official web portal to all federal, state and local government web resources and services.